Time,TemperatureF,DewpointF,PressureIn,WindDirection,WindDirectionDegrees,WindSpeedMPH,WindSpeedGustMPH,Humidity,HourlyPrecipIn,Conditions,Clouds,dailyrainin,SoftwareType,DateUTC
2013-03-10 00:01:00,58.0,34.0,29.97,South,176,3.0,8.0,41,0.00,,,0.00,,2013-03-10 06:01:00,
2013-03-10 00:11:00,58.0,34.0,29.97,South,176,3.0,8.0,41,0.00,,,0.00,,2013-03-10 06:11:00,
2013-03-10 00:22:00,59.0,35.0,29.98,South,182,5.0,9.0,41,0.00,,,0.00,,2013-03-10 06:22:00,
2013-03-10 00:32:00,60.0,35.0,29.98,South,189,3.0,7.0,39,0.00,,,0.00,,2013-03-10 06:32:00,
2013-03-10 00:42:00,60.0,36.0,29.98,South,174,3.0,6.0,40,0.00,,,0.00,,2013-03-10 06:42:00,
2013-03-10 00:52:00,60.0,36.0,29.98,South,174,3.0,6.0,40,0.00,,,0.00,,2013-03-10 06:52:00,
2013-03-10 01:01:00,60.0,36.0,29.99,South,182,3.0,9.0,40,0.00,,,0.00,,2013-03-10 07:01:00,
2013-03-10 01:11:00,62.0,36.0,29.99,South,174,5.0,13.0,38,0.00,,,0.00,,2013-03-10 07:11:00,
2013-03-10 01:21:00,62.0,36.0,29.99,South,174,5.0,13.0,38,0.00,,,0.00,,2013-03-10 07:21:00,
2013-03-10 01:31:00,62.0,36.0,29.99,South,190,6.0,13.0,38,0.00,,,0.00,,2013-03-10 07:31:00,
2013-03-10 01:42:00,62.0,37.0,29.99,SSE,160,5.0,12.0,39,0.00,,,0.00,,2013-03-10 07:42:00,
2013-03-10 01:52:00,62.0,37.0,29.99,SSE,160,5.0,12.0,39,0.00,,,0.00,,2013-03-10 07:52:00,
2013-03-10 03:01:00,62.0,37.0,29.98,South,188,7.0,14.0,39,0.00,,,0.00,,2013-03-10 08:01:00,
2013-03-10 03:11:00,62.0,37.0,29.98,South,188,7.0,14.0,39,0.00,,,0.00,,2013-03-10 08:11:00,
2013-03-10 03:21:00,61.0,36.0,29.99,South,184,8.0,12.0,39,0.00,,,0.00,,2013-03-10 08:21:00,
2013-03-10 03:31:00,61.0,35.0,29.98,South,183,7.0,13.0,38,0.00,,,0.00,,2013-03-10 08:31:00,
2013-03-10 03:42:00,61.0,36.0,29.97,SSE,166,6.0,14.0,39,0.00,,,0.00,,2013-03-10 08:42:00,
2013-03-10 03:52:00,61.0,36.0,29.97,SSE,166,6.0,14.0,39,0.00,,,0.00,,2013-03-10 08:52:00,
2013-03-10 04:01:00,61.0,36.0,29.97,South,188,6.0,13.0,39,0.00,,,0.00,,2013-03-10 09:01:00,
2013-03-10 04:11:00,61.0,36.0,29.97,South,188,6.0,13.0,39,0.00,,,0.00,,2013-03-10 09:11:00,
2013-03-10 04:21:00,60.0,36.0,29.97,SSE,168,8.0,13.0,40,0.00,,,0.00,,2013-03-10 09:21:00,
2013-03-10 04:31:00,60.0,36.0,29.96,South,179,6.0,13.0,41,0.00,,,0.00,,2013-03-10 09:31:00,
2013-03-10 04:41:00,60.0,36.0,29.96,South,179,6.0,13.0,41,0.00,,,0.00,,2013-03-10 09:41:00,
2013-03-10 04:52:00,60.0,36.0,29.96,SSE,161,6.0,12.0,41,0.00,,,0.00,,2013-03-10 09:52:00,
2013-03-10 05:01:00,60.0,36.0,29.96,SSE,157,6.0,12.0,41,0.00,,,0.00,,2013-03-10 10:01:00,
2013-03-10 05:11:00,60.0,36.0,29.96,SSE,157,6.0,12.0,41,0.00,,,0.00,,2013-03-10 10:11:00,
2013-03-10 05:21:00,60.0,35.0,29.95,SSE,157,5.0,16.0,39,0.00,,,0.00,,2013-03-10 10:21:00,
2013-03-10 05:32:00,60.0,36.0,29.95,SSE,153,5.0,13.0,41,0.00,,,0.00,,2013-03-10 10:32:00,
2013-03-10 05:41:00,59.0,35.0,29.95,SSE,152,5.0,14.0,41,0.00,,,0.00,,2013-03-10 10:41:00,
2013-03-10 05:52:00,59.0,35.0,29.95,SSE,152,5.0,14.0,41,0.00,,,0.00,,2013-03-10 10:52:00,
2013-03-10 06:01:00,59.0,36.0,29.94,South,181,5.0,13.0,42,0.00,,,0.00,,2013-03-10 11:01:00,
2013-03-10 06:12:00,58.0,35.0,29.94,South,181,3.0,11.0,42,0.00,,,0.00,,2013-03-10 11:12:00,
2013-03-10 06:21:00,58.0,35.0,29.94,South,181,3.0,11.0,42,0.00,,,0.00,,2013-03-10 11:21:00,
2013-03-10 06:31:00,58.0,36.0,29.95,SSE,166,5.0,11.0,43,0.00,,,0.00,,2013-03-10 11:31:00,
2013-03-10 06:42:00,58.0,36.0,29.95,SSE,166,5.0,11.0,43,0.00,,,0.00,,2013-03-10 11:42:00,
2013-03-10 06:52:00,59.0,36.0,29.95,South,186,5.0,14.0,42,0.00,,,0.00,,2013-03-10 11:52:00,
2013-03-10 07:01:00,58.0,36.0,29.96,SSE,165,4.0,14.0,44,0.00,,,0.00,,2013-03-10 12:01:00,
2013-03-10 07:11:00,58.0,36.0,29.96,SSE,165,4.0,14.0,44,0.00,,,0.00,,2013-03-10 12:11:00,
2013-03-10 07:21:00,58.0,36.0,29.97,South,183,5.0,11.0,44,0.00,,,0.00,,2013-03-10 12:21:00,
2013-03-10 07:31:00,58.0,37.0,29.96,South,189,2.0,9.0,45,0.00,,,0.00,,2013-03-10 12:31:00,
2013-03-10 07:42:00,58.0,37.0,29.96,South,189,2.0,9.0,45,0.00,,,0.00,,2013-03-10 12:42:00,
2013-03-10 07:52:00,58.0,38.0,29.96,South,179,6.0,13.0,47,0.00,,,0.00,,2013-03-10 12:52:00,
2013-03-10 08:01:00,58.0,39.0,29.95,South,169,3.0,13.0,49,0.00,,,0.00,,2013-03-10 13:01:00,
2013-03-10 08:11:00,58.0,39.0,29.95,South,169,3.0,13.0,49,0.00,,,0.00,,2013-03-10 13:11:00,
2013-03-10 08:21:00,58.0,39.0,29.94,South,181,5.0,10.0,49,0.00,,,0.00,,2013-03-10 13:21:00,
2013-03-10 08:31:00,58.0,39.0,29.92,South,172,7.0,12.0,49,0.00,,,0.00,,2013-03-10 13:31:00,
2013-03-10 08:41:00,58.0,39.0,29.92,South,172,7.0,12.0,49,0.00,,,0.00,,2013-03-10 13:41:00,
2013-03-10 08:52:00,58.0,39.0,29.92,SSE,149,8.0,18.0,49,0.00,,,0.00,,2013-03-10 13:52:00,
2013-03-10 09:01:00,58.0,38.0,29.92,SSE,152,8.0,16.0,48,0.00,,,0.00,,2013-03-10 14:01:00,
2013-03-10 09:11:00,58.0,38.0,29.92,SSE,152,8.0,16.0,48,0.00,,,0.00,,2013-03-10 14:11:00,
2013-03-10 09:21:00,58.0,38.0,29.93,South,176,7.0,19.0,47,0.00,,,0.00,,2013-03-10 14:21:00,
2013-03-10 09:32:00,59.0,38.0,29.94,SSE,165,6.0,19.0,46,0.00,,,0.00,,2013-03-10 14:32:00,
2013-03-10 09:41:00,59.0,38.0,29.94,SSE,165,6.0,19.0,46,0.00,,,0.00,,2013-03-10 14:41:00,
2013-03-10 09:52:00,61.0,39.0,29.93,SSE,162,9.0,17.0,44,0.00,,,0.00,,2013-03-10 14:52:00,
2013-03-10 10:01:00,61.0,37.0,29.93,South,171,12.0,22.0,41,0.00,,,0.00,,2013-03-10 15:01:00,
2013-03-10 10:11:00,61.0,37.0,29.93,South,171,12.0,22.0,41,0.00,,,0.00,,2013-03-10 15:11:00,
2013-03-10 10:21:00,61.0,37.0,29.94,South,175,8.0,19.0,41,0.00,,,0.00,,2013-03-10 15:21:00,
2013-03-10 10:32:00,61.0,38.0,29.93,SSE,164,7.0,18.0,42,0.00,,,0.00,,2013-03-10 15:32:00,
2013-03-10 10:42:00,61.0,38.0,29.93,SSE,164,7.0,18.0,42,0.00,,,0.00,,2013-03-10 15:42:00,
2013-03-10 10:52:00,61.0,39.0,29.92,South,170,10.0,17.0,44,0.00,,,0.00,,2013-03-10 15:52:00,
2013-03-10 11:01:00,61.0,39.0,29.91,South,180,7.0,15.0,44,0.00,,,0.00,,2013-03-10 16:01:00,
2013-03-10 11:12:00,61.0,39.0,29.91,South,180,7.0,15.0,44,0.00,,,0.00,,2013-03-10 16:12:00,
2013-03-10 11:21:00,62.0,40.0,29.90,SSE,159,7.0,14.0,44,0.00,,,0.00,,2013-03-10 16:21:00,
2013-03-10 11:31:00,62.0,40.0,29.88,South,169,7.0,18.0,45,0.00,,,0.00,,2013-03-10 16:31:00,
2013-03-10 11:41:00,62.0,40.0,29.88,South,169,7.0,18.0,45,0.00,,,0.00,,2013-03-10 16:41:00,
2013-03-10 11:52:00,62.0,41.0,29.89,South,190,12.0,20.0,46,0.00,,,0.00,,2013-03-10 16:52:00,
2013-03-10 12:01:00,64.0,42.0,29.89,SSE,165,7.0,23.0,45,0.00,,,0.00,,2013-03-10 17:01:00,
2013-03-10 12:11:00,64.0,42.0,29.89,SSE,165,7.0,23.0,45,0.00,,,0.00,,2013-03-10 17:11:00,
2013-03-10 12:21:00,65.0,43.0,29.89,South,186,8.0,21.0,44,0.00,,,0.00,,2013-03-10 17:21:00,
2013-03-10 12:31:00,65.0,43.0,29.89,South,173,12.0,20.0,45,0.00,,,0.00,,2013-03-10 17:31:00,
2013-03-10 12:41:00,65.0,43.0,29.89,South,173,12.0,20.0,45,0.00,,,0.00,,2013-03-10 17:41:00,
2013-03-10 12:51:00,67.0,46.0,29.88,SSW,210,6.0,22.0,47,0.00,,,0.00,,2013-03-10 17:51:00,
2013-03-10 13:01:00,68.0,46.0,29.88,SSE,161,11.0,17.0,45,0.00,,,0.00,,2013-03-10 18:01:00,
2013-03-10 13:11:00,68.0,46.0,29.88,SSE,161,11.0,17.0,45,0.00,,,0.00,,2013-03-10 18:11:00,
2013-03-10 13:21:00,67.0,47.0,29.86,South,191,8.0,25.0,48,0.00,,,0.00,,2013-03-10 18:21:00,
2013-03-10 13:32:00,67.0,47.0,29.85,South,185,11.0,20.0,49,0.00,,,0.00,,2013-03-10 18:32:00,
2013-03-10 13:42:00,67.0,47.0,29.85,South,185,11.0,20.0,49,0.00,,,0.00,,2013-03-10 18:42:00,
2013-03-10 13:52:00,66.0,46.0,29.84,South,169,11.0,20.0,49,0.00,,,0.00,,2013-03-10 18:52:00,
2013-03-10 14:01:00,66.0,47.0,29.84,South,183,7.0,19.0,50,0.00,,,0.00,,2013-03-10 19:01:00,
2013-03-10 14:11:00,66.0,47.0,29.84,South,183,7.0,19.0,50,0.00,,,0.00,,2013-03-10 19:11:00,
2013-03-10 14:21:00,66.0,47.0,29.83,South,188,9.0,19.0,51,0.00,,,0.00,,2013-03-10 19:21:00,
2013-03-10 14:31:00,66.0,48.0,29.83,South,184,10.0,17.0,52,0.00,,,0.00,,2013-03-10 19:31:00,
2013-03-10 14:42:00,66.0,48.0,29.83,South,184,10.0,17.0,52,0.00,,,0.00,,2013-03-10 19:42:00,
2013-03-10 14:53:00,66.0,48.0,29.82,South,190,9.0,20.0,52,0.00,,,0.00,,2013-03-10 19:53:00,
2013-03-10 15:02:00,66.0,48.0,29.81,SSE,165,9.0,21.0,52,0.00,,,0.00,,2013-03-10 20:02:00,
2013-03-10 15:12:00,66.0,48.0,29.81,SSE,165,9.0,21.0,52,0.00,,,0.00,,2013-03-10 20:12:00,
2013-03-10 15:22:00,66.0,48.0,29.82,South,186,13.0,23.0,53,0.00,,,0.00,,2013-03-10 20:22:00,
2013-03-10 15:32:00,64.0,50.0,29.80,South,179,11.0,21.0,60,0.01,,,0.01,,2013-03-10 20:32:00,
2013-03-10 15:42:00,64.0,50.0,29.80,South,179,11.0,21.0,60,0.01,,,0.01,,2013-03-10 20:42:00,
2013-03-10 15:53:00,63.0,51.0,29.79,South,181,9.0,20.0,64,0.02,,,0.02,,2013-03-10 20:53:00,
2013-03-10 16:02:00,63.0,52.0,29.79,SSE,159,9.0,16.0,68,0.02,,,0.02,,2013-03-10 21:02:00,
2013-03-10 16:12:00,63.0,52.0,29.79,SSE,159,9.0,16.0,68,0.02,,,0.02,,2013-03-10 21:12:00,
2013-03-10 16:22:00,63.0,52.0,29.79,SSE,159,7.0,19.0,67,0.03,,,0.03,,2013-03-10 21:22:00,
2013-03-10 16:32:00,62.0,52.0,29.78,South,185,8.0,16.0,69,0.03,,,0.04,,2013-03-10 21:32:00,
2013-03-10 16:42:00,62.0,52.0,29.78,South,185,8.0,16.0,69,0.03,,,0.04,,2013-03-10 21:42:00,
2013-03-10 16:53:00,62.0,52.0,29.76,SSE,166,7.0,14.0,69,0.02,,,0.04,,2013-03-10 21:53:00,
2013-03-10 17:02:00,62.0,51.0,29.76,SSW,193,6.0,15.0,68,0.02,,,0.04,,2013-03-10 22:02:00,
2013-03-10 17:12:00,62.0,51.0,29.76,SSW,193,6.0,15.0,68,0.02,,,0.04,,2013-03-10 22:12:00,
2013-03-10 17:22:00,61.0,52.0,29.82,West,272,6.0,17.0,73,0.08,,,0.11,,2013-03-10 22:22:00,
2013-03-10 17:32:00,56.0,49.0,29.82,NW,317,5.0,11.0,77,0.08,,,0.12,,2013-03-10 22:32:00,
2013-03-10 17:42:00,56.0,49.0,29.82,NW,317,5.0,11.0,77,0.08,,,0.12,,2013-03-10 22:42:00,
2013-03-10 17:53:00,53.0,47.0,29.84,NW,317,5.0,12.0,79,0.13,,,0.17,,2013-03-10 22:53:00,
2013-03-10 18:03:00,52.0,46.0,29.87,WNW,301,4.0,10.0,81,0.23,,,0.27,,2013-03-10 23:03:00,
2013-03-10 18:12:00,52.0,47.0,29.83,NNE,26,0.0,7.0,83,0.27,,,0.38,,2013-03-10 23:12:00,
2013-03-10 18:22:00,52.0,47.0,29.83,NNE,26,0.0,7.0,83,0.27,,,0.38,,2013-03-10 23:22:00,
2013-03-10 18:32:00,51.0,46.0,29.82,NNE,26,0.0,1.0,83,0.31,,,0.43,,2013-03-10 23:32:00,
2013-03-10 18:42:00,51.0,46.0,29.82,NNE,26,0.0,1.0,83,0.31,,,0.43,,2013-03-10 23:42:00,
2013-03-10 18:52:00,51.0,46.0,29.85,NNE,23,0.0,4.0,84,0.30,,,0.47,,2013-03-10 23:52:00,
2013-03-10 19:02:00,51.0,46.0,29.85,NNE,23,0.0,3.0,84,0.26,,,0.53,,2013-03-11 00:02:00,
2013-03-10 19:12:00,51.0,46.0,29.85,NNE,23,0.0,3.0,84,0.26,,,0.53,,2013-03-11 00:12:00,
2013-03-10 19:22:00,51.0,46.0,29.81,NNE,28,1.0,4.0,84,0.21,,,0.59,,2013-03-11 00:22:00,
2013-03-10 19:33:00,51.0,47.0,29.83,NNE,28,0.0,3.0,85,0.19,,,0.62,,2013-03-11 00:33:00,
2013-03-10 19:43:00,51.0,47.0,29.83,NNE,28,0.0,3.0,85,0.19,,,0.62,,2013-03-11 00:43:00,
2013-03-10 19:53:00,51.0,47.0,29.84,SSE,150,0.0,5.0,85,0.20,,,0.66,,2013-03-11 00:53:00,
2013-03-10 20:02:00,51.0,47.0,29.84,SSE,164,0.0,3.0,85,0.16,,,0.69,,2013-03-11 01:02:00,
2013-03-10 20:12:00,51.0,47.0,29.84,SSE,164,0.0,3.0,85,0.16,,,0.69,,2013-03-11 01:12:00,
2013-03-10 20:22:00,51.0,47.0,29.81,SSE,158,0.0,3.0,85,0.13,,,0.72,,2013-03-11 01:22:00,
2013-03-10 20:32:00,51.0,47.0,29.83,SSE,158,1.0,3.0,85,0.13,,,0.75,,2013-03-11 01:32:00,
2013-03-10 20:42:00,51.0,47.0,29.83,SSE,158,1.0,3.0,85,0.13,,,0.75,,2013-03-11 01:42:00,
2013-03-10 20:53:00,51.0,47.0,29.83,SSE,158,0.0,1.0,85,0.15,,,0.81,,2013-03-11 01:53:00,
2013-03-10 21:02:00,51.0,47.0,29.85,SSE,158,0.0,1.0,86,0.16,,,0.85,,2013-03-11 02:02:00,
2013-03-10 21:12:00,51.0,47.0,29.85,SSE,158,0.0,1.0,86,0.16,,,0.85,,2013-03-11 02:12:00,
2013-03-10 21:22:00,52.0,48.0,29.85,SSE,158,0.0,3.0,86,0.17,,,0.89,,2013-03-11 02:22:00,
2013-03-10 21:32:00,52.0,48.0,29.83,SSE,158,0.0,5.0,86,0.17,,,0.92,,2013-03-11 02:32:00,
2013-03-10 21:42:00,52.0,48.0,29.83,SSE,158,0.0,5.0,86,0.17,,,0.92,,2013-03-11 02:42:00,
2013-03-10 21:52:00,52.0,48.0,29.83,SSE,158,0.0,3.0,86,0.13,,,0.94,,2013-03-11 02:52:00,
2013-03-10 22:02:00,52.0,48.0,29.84,SSE,158,1.0,2.0,86,0.14,,,0.99,,2013-03-11 03:02:00,
2013-03-10 22:12:00,52.0,48.0,29.84,SSE,158,1.0,2.0,86,0.14,,,0.99,,2013-03-11 03:12:00,
2013-03-10 22:22:00,53.0,49.0,29.85,SSE,166,1.0,4.0,86,0.16,,,1.05,,2013-03-11 03:22:00,
2013-03-10 22:32:00,53.0,49.0,29.86,South,189,2.0,7.0,87,0.18,,,1.10,,2013-03-11 03:32:00,
2013-03-10 22:42:00,53.0,49.0,29.86,South,189,2.0,7.0,87,0.18,,,1.10,,2013-03-11 03:42:00,
2013-03-10 22:53:00,53.0,49.0,29.84,South,185,2.0,5.0,86,0.22,,,1.16,,2013-03-11 03:53:00,
2013-03-10 23:02:00,53.0,49.0,29.84,South,190,1.0,6.0,86,0.23,,,1.21,,2013-03-11 04:02:00,
2013-03-10 23:12:00,53.0,49.0,29.84,South,190,1.0,6.0,86,0.23,,,1.21,,2013-03-11 04:12:00,
2013-03-10 23:22:00,52.0,48.0,29.84,South,190,1.0,-999.0,86,-99.99,,,-99.99,,2013-03-11 04:22:00,
2013-03-10 23:32:00,52.0,49.0,29.85,SSW,202,0.0,-999.0,88,-99.99,,,-99.99,,2013-03-11 04:32:00,
2013-03-10 23:42:00,52.0,49.0,29.85,SSW,202,0.0,-999.0,88,-99.99,,,-99.99,,2013-03-11 04:42:00,
2013-03-10 23:53:00,52.0,48.0,29.84,South,181,3.0,-999.0,87,-99.99,,,-99.99,,2013-03-11 04:53:00,